User: anonymous   Login
Location: Unspecified
(0.0000°N, 0.0000°E)
Time: 19:41:15
(UTC+00:00)
Language:

SR - Orbit

View from above orbital plane
View from above orbital plane
View from above satellite
View from above satellite

Ground track
Ground track

The orbit data is extracted from the following two-line orbital elements,

1 00046U 60007B   14297.24130932  .00000851  00000-0  19211-3 0  7674
2 00046 066.6919 218.3795 0219635 229.7969 128.3736 14.47917364840192
Epoch (UTC): 24 October 2014 05:47:29
Eccentricity: 0.0219635
inclination: 66.6919°
perigee height: 576 km
apogee height: 888 km
right ascension of ascending node: 218.3795°
argument of perigee: 229.7969°
revolutions per day: 14.47917364
mean anomaly at epoch: 128.3736°
orbit number at epoch: 84019

The dashed part of the orbit path shows where the satellite is in the earth's shadow,  

DLR